Regional Weather Roundup
Issued by NWS Midland/Odessa, TX

Skip options and go directly to product.
Home | Oldest Version | Next Version | Current Version | All | Text Only | Save Text | Print | Product List | Glossary On

Skip product version selection by date and time.   
997
ASUS44 KMAF 282010
RWRMAF
MIDLAND AREA WEATHER ROUNDUP
NATIONAL WEATHER SERVICE MIDLAND TX
300 PM CDT TUE JUN 28 2016

...IN SOUTHWEST TEXAS AND SOUTHEAST NEW MEXICO...

CITY           SKY/WX    TMP DP  RH WIND       PRES   REMARKS
ALPINE         CLOUDY    82  60  47 SE13      30.29F
ANDREWS        FAIR      88  58  35 E12G17    30.19F
ARTESIA        SUNNY     88  59  37 SE10G17   30.21F
BIG SPRING     MOSUNNY   88  63  43 S7        30.17F
CARLSBAD       PTSUNNY   85  61  44 E8        30.19F
DRYDEN           N/A     92  64  39 E13G22    30.09F
FORT STOCKTON  PTSUNNY   87  61  41 E12G22    30.16F
GUAD PASS      CLOUDY    69  60  73 E22G33    30.34S
HOBBS          PTSUNNY   84  59  42 NE16G23   30.23F
MARFA          CLOUDY   N/A N/A N/A E14G21    30.27F
MIDLAND AIRPK  MOSUNNY   89  62  39 E6        30.18F
MIDLAND INTL   PTSUNNY   86  64  47 S3        30.17F
ODESSA         MOSUNNY   88  62  41 VRB5G17   30.19F
PECOS          CLOUDY    80  63  56 W13       30.17S
PRESIDIO       MOCLDY    88  63  43 NE10G16   30.09F
SEMINOLE       MOSUNNY   85  58  40 NE6       30.22F
SNYDER           N/A     89  63  40 CALM      30.16F
WINK           MOSUNNY   87  63  44 SE12      30.16F
$$
...OTHER STATIONS IN TEXAS...

CITY           SKY/WX    TMP DP  RH WIND       PRES   REMARKS
ABILENE        HVY RAIN  71  70  96 N14       30.19R FOG
AMARILLO       SUNNY     91  53  27 SW5       30.21F
AUSTIN         PTSUNNY   96  68  39 CALM      29.97F HX 101
BROWNSVILLE    MOSUNNY   91  75  59 S9        29.99F HX 101
CORPUS CHRISTI MOSUNNY   97  71  42 SE7       29.95F HX 104
DALLAS FTW     PTSUNNY   95  70  44 VRB6      30.01F HX 101
DEL RIO        SUNNY     95  65  37 MISG      30.01F
EL PASO        PTSUNNY   81  62  52 SE12      30.18F
HOUSTON INT    TSTM      77  72  84 SW7       30.02R
LUBBOCK        MOSUNNY   93  55  27 VRB6      30.19F
SAN ANGELO     NOT AVBL
SAN ANTONIO    PTSUNNY   92  68  45 VRB6      30.00F
WACO           CLOUDY    81  68  64 N5        29.98F
WICHITA FALLS  NOT AVBL
$$
...OTHER LOCATIONS IN NEW MEXICO...

CITY           SKY/WX    TMP DP  RH WIND       PRES   REMARKS
ALAMAGORDO     CLOUDY    82  57  42 NE7       30.23F
ALBUQUERQUE    MOSUNNY   87  48  25 CALM      30.29F
CANNON AFB     SUNNY     85  52  32 NW7       30.26F
CLOVIS         SUNNY     86  57  37 NE6       30.27F
HOLLOMAN AFB   PTSUNNY   85  57  38 VRB3      30.21F
ROSWELL        MOSUNNY   87  58  37 VRB5      30.22F
RUIDOSO        LGT RAIN  68  55  64 E13       30.46F
SANTA FE       MOSUNNY   89  41  18 SE13G30   30.35F
TRUTH OR CONSE PTSUNNY   84  53  34 SE10      30.24F
TUCUMCARI      SUNNY     89  46  22 MISG      30.23F
$$

USA.gov is the U.S. government's official web portal to all federal, state and local government web resources and services.